Tracking 35274 objects as of 10-Sep-2026
HD Live streaming from Space Station
objects crossing your sky now

ATLAS 5 CENTAUR R/B

Track ATLAS 5 CENTAUR R/B now!
10-day predictions


NORAD ID: 58015
Int'l Code: 2023-154C
Launch date: October 6, 2023
Source: United States (US)
Launch site: AIR FORCE EASTERN TEST RANGE (AFETR)

Note: This is a ROCKET BODY
Your satellite tracking list
Your tracking list is empty




NASA's NSSDC Master Catalog

Two Line Element Set (TLE):
1 58015U 23154C   23279.78196957  .00000153  00000-0  00000+0 0  9997
2 58015  29.9500  95.2397 0019000 272.2000 321.4360 15.22383530    05
Source of the keplerian elements: AFSPC